Change the Weather History Date:

Monday, September 2, 2013

  Actual Average Record
Temperature  
Mean Temperature 66 °F 59 °F  
Max Temperature 73 °F 66 °F 80 °F (1973)
Min Temperature 59 °F 52 °F 40 °F (1913)
Degree Days  
Heating Degree Days 0 6  
Month to date heating degree days 0 12  
Since 1 July heating degree days 167 391  
Cooling Degree Days 1 0  
Month to date cooling degree days 1 0  
Year to date cooling degree days 13 1  
Growing Degree Days 16 (Base 50)    
Moisture  
Dew Point 61 °F    
Average Humidity 81    
Maximum Humidity 100    
Minimum Humidity 64    
Precipitation  
Precipitation 0.01 in 0.03 in 1.77 in (1999)
Month to date precipitation 0.01 0.06  
Year to date precipitation 17.94 37.30  
Sea Level Pressure  
Sea Level Pressure 29.92 in    
Wind  
Wind Speed 8 mph (SW)    
Max Wind Speed 18 mph    
Max Gust Speed 23 mph    
Visibility 10 miles    
Events      
T = Trace of Precipitation, MM = Missing Value Source: NWS Daily Summary

Daily Weather History Graph

Daily Weather History Graph

Search for Another Location

Airport or City:

Trip Planner

Search our weather history database for the weather conditions in past years. The results will help you decide how hot, cold, wet, or windy it might be!

Date:

Astronomy

Sep. 02, 2013 Rise Set
Actual Time 6:42 AM PDT 7:49 PM PDT
Civil Twilight 6:13 AM PDT 8:19 PM PDT
Nautical Twilight 5:37 AM PDT 8:54 PM PDT
Astronomical Twilight 5:00 AM PDT 9:30 PM PDT
Moon 4:01 AM PDT (9/2) 6:08 PM PDT (9/2)
Length of Visible Light 14h 05m
Length of Day
13h 07m
Waning Crescent, 7% of the Moon is Illuminated
Sep 2
Waning Crescent
Sep 5
New
Sep 12
First Quarter
Sep 19
Full
Sep 26
Last Quarter

Hourly Weather History & Observations

Time (PDT) Temp. Dew Point Humidity Pressure Visibility Wind Dir Wind Speed Gust Speed Precip Events Conditions
12:15 AM 66.2 °F 64.4 °F 94% 29.89 in 10.0 mi West 4.6 mph - N/A   Overcast
12:35 AM 64.4 °F 64.4 °F 100% 29.89 in 10.0 mi Calm Calm - N/A   Overcast
12:55 AM 66.2 °F 62.6 °F 88% 29.89 in 10.0 mi West 4.6 mph - N/A   Overcast
1:15 AM 66.2 °F 64.4 °F 94% 29.90 in 10.0 mi SW 3.5 mph - N/A   Overcast
1:35 AM 66.2 °F 62.6 °F 88% 29.90 in 10.0 mi SW 4.6 mph - N/A   Overcast
1:55 AM 66.2 °F 62.6 °F 88% 29.90 in 10.0 mi Calm Calm - N/A   Overcast
2:15 AM 66.2 °F 62.6 °F 88% 29.90 in 10.0 mi Calm Calm - N/A   Overcast
2:35 AM 66.2 °F 62.6 °F 88% 29.89 in 10.0 mi WSW 3.5 mph - N/A   Overcast
2:55 AM 64.4 °F 62.6 °F 94% 29.89 in 9.0 mi West 3.5 mph - N/A   Overcast
3:15 AM 64.4 °F 64.4 °F 100% 29.89 in 9.0 mi SSW 6.9 mph - N/A   Overcast
3:35 AM 64.4 °F 64.4 °F 100% 29.89 in 10.0 mi SSW 9.2 mph - 0.01 in   Overcast
3:55 AM 64.4 °F 64.4 °F 100% 29.89 in 10.0 mi SW 4.6 mph - 0.01 in   Overcast
4:15 AM 64.4 °F 64.4 °F 100% 29.89 in 10.0 mi SSW 6.9 mph - N/A   Overcast
4:35 AM 64.4 °F 64.4 °F 100% 29.89 in 10.0 mi SSW 8.1 mph - N/A   Overcast
4:55 AM 64.4 °F 64.4 °F 100% 29.89 in 10.0 mi SSW 4.6 mph - N/A   Overcast
5:15 AM 64.4 °F 64.4 °F 100% 29.89 in 10.0 mi SSW 4.6 mph - N/A   Overcast
5:35 AM 64.4 °F 64.4 °F 100% 29.89 in 10.0 mi South 3.5 mph - N/A   Overcast
5:55 AM 64.4 °F 62.6 °F 94% 29.89 in 10.0 mi SSW 6.9 mph - N/A   Overcast
6:15 AM 64.4 °F 62.6 °F 94% 29.90 in 10.0 mi WSW 5.8 mph - N/A   Overcast
6:35 AM 64.4 °F 62.6 °F 94% 29.91 in 10.0 mi South 4.6 mph - N/A   Overcast
6:55 AM 64.4 °F 62.6 °F 94% 29.91 in 10.0 mi SSW 6.9 mph - N/A   Overcast
7:15 AM 62.6 °F 62.6 °F 100% 29.91 in 10.0 mi SSW 4.6 mph - N/A   Overcast
7:35 AM 62.6 °F 60.8 °F 94% 29.92 in 10.0 mi Calm Calm - N/A   Overcast
7:55 AM 64.4 °F 60.8 °F 88% 29.92 in 10.0 mi Calm Calm - N/A   Overcast
8:15 AM 64.4 °F 60.8 °F 88% 29.92 in 10.0 mi South 3.5 mph - N/A   Overcast
8:35 AM 66.2 °F 60.8 °F 83% 29.92 in 10.0 mi South 3.5 mph - N/A   Overcast
8:55 AM 66.2 °F 60.8 °F 83% 29.92 in 10.0 mi Calm Calm - N/A   Overcast
9:15 AM 66.2 °F 60.8 °F 83% 29.93 in 10.0 mi SW 5.8 mph - N/A   Overcast
9:35 AM 68.0 °F 60.8 °F 78% 29.93 in 10.0 mi SSW 9.2 mph - N/A   Overcast
9:55 AM 69.8 °F 60.8 °F 73% 29.93 in 10.0 mi SSW 9.2 mph - N/A   Overcast
10:15 AM 69.8 °F 60.8 °F 73% 29.93 in 10.0 mi South 8.1 mph - N/A   Overcast
10:35 AM 69.8 °F 60.8 °F 73% 29.93 in 10.0 mi SW 9.2 mph - N/A   Mostly Cloudy
10:55 AM 71.6 °F 59.0 °F 64% 29.93 in 10.0 mi South 10.4 mph - N/A   Mostly Cloudy
11:15 AM 73.4 °F 60.8 °F 65% 29.93 in 10.0 mi SSW 6.9 mph - N/A   Mostly Cloudy
11:35 AM 71.6 °F 59.0 °F 64% 29.93 in 10.0 mi SW 10.4 mph - N/A   Mostly Cloudy
11:55 AM 73.4 °F 60.8 °F 65% 29.93 in 10.0 mi West 12.7 mph 21.9 mph N/A   Scattered Clouds
12:15 PM 73.4 °F 59.0 °F 61% 29.92 in 10.0 mi WSW 13.8 mph - N/A   Scattered Clouds
12:35 PM 73.4 °F 60.8 °F 65% 29.92 in 10.0 mi WSW 13.8 mph - N/A   Scattered Clouds
12:55 PM 73.4 °F 60.8 °F 65% 29.92 in 10.0 mi WSW 16.1 mph - N/A   Scattered Clouds
1:15 PM 71.6 °F 60.8 °F 69% 29.92 in 10.0 mi WSW 17.3 mph - N/A   Scattered Clouds
1:35 PM 73.4 °F 60.8 °F 65% 29.92 in 10.0 mi WSW 17.3 mph 23.0 mph N/A   Scattered Clouds
1:55 PM 71.6 °F 60.8 °F 69% 29.92 in 10.0 mi WSW 18.4 mph 23.0 mph N/A   Clear
2:15 PM 71.6 °F 60.8 °F 69% 29.92 in 10.0 mi WSW 18.4 mph 24.2 mph N/A   Scattered Clouds
2:35 PM 71.6 °F 60.8 °F 69% 29.92 in 10.0 mi WSW 18.4 mph 24.2 mph N/A   Scattered Clouds
2:55 PM 71.6 °F 62.6 °F 73% 29.92 in 10.0 mi WSW 17.3 mph - N/A   Scattered Clouds
3:15 PM 71.6 °F 60.8 °F 69% 29.92 in 10.0 mi WSW 19.6 mph 24.2 mph N/A   Clear
3:35 PM 71.6 °F 60.8 °F 69% 29.92 in 10.0 mi WSW 18.4 mph 24.2 mph N/A   Clear
3:55 PM 71.6 °F 60.8 °F 69% 29.91 in 10.0 mi WSW 18.4 mph 23.0 mph N/A   Clear
4:15 PM 71.6 °F 60.8 °F 69% 29.91 in 10.0 mi WSW 17.3 mph 24.2 mph N/A   Clear
4:35 PM 71.6 °F 60.8 °F 69% 29.92 in 10.0 mi WSW 17.3 mph 20.7 mph N/A   Clear
4:55 PM 71.6 °F 60.8 °F 69% 29.92 in 10.0 mi WSW 13.8 mph - N/A   Clear
5:15 PM 69.8 °F 60.8 °F 73% 29.91 in 10.0 mi WSW 16.1 mph 21.9 mph N/A   Clear
5:35 PM 69.8 °F 60.8 °F 73% 29.92 in 10.0 mi WSW 18.4 mph 23.0 mph N/A   Clear
5:55 PM 69.8 °F 60.8 °F 73% 29.92 in 10.0 mi WSW 15.0 mph 21.9 mph N/A   Clear
6:15 PM 69.8 °F 60.8 °F 73% 29.92 in 10.0 mi WSW 15.0 mph 18.4 mph N/A   Clear
6:35 PM 66.2 °F 60.8 °F 83% 29.92 in 10.0 mi West 12.7 mph - N/A   Clear
6:55 PM 66.2 °F 60.8 °F 83% 29.92 in 10.0 mi West 12.7 mph - N/A   Clear
7:15 PM 66.2 °F 60.8 °F 83% 29.92 in 10.0 mi West 9.2 mph - N/A   Clear
7:35 PM 64.4 °F 60.8 °F 88% 29.92 in 10.0 mi WSW 8.1 mph - N/A   Clear
7:55 PM 64.4 °F 57.2 °F 77% 29.93 in 10.0 mi SW 5.8 mph - N/A   Clear
8:15 PM 64.4 °F 57.2 °F 77% 29.93 in 10.0 mi SW 5.8 mph - N/A   Clear
8:35 PM 64.4 °F 57.2 °F 77% 29.93 in 10.0 mi SW 6.9 mph - N/A   Partly Cloudy
8:55 PM 64.4 °F 55.4 °F 73% 29.94 in 10.0 mi SW 4.6 mph - N/A   Clear
9:15 PM 62.6 °F 55.4 °F 77% 29.94 in 10.0 mi WSW 3.5 mph - N/A   Clear
9:35 PM 62.6 °F 55.4 °F 77% 29.95 in 10.0 mi SSE 3.5 mph - N/A   Clear
9:55 PM 62.6 °F 55.4 °F 77% 29.95 in 10.0 mi Calm Calm - N/A   Clear
10:15 PM 62.6 °F 55.4 °F 77% 29.95 in 10.0 mi Calm Calm - N/A   Clear
10:35 PM 62.6 °F 53.6 °F 72% 29.95 in 10.0 mi SSE 4.6 mph - N/A   Clear
10:55 PM 60.8 °F 55.4 °F 82% 29.96 in 10.0 mi SSW 4.6 mph - N/A   Clear
11:15 PM 59.0 °F 57.2 °F 94% 29.96 in 10.0 mi SE 4.6 mph - N/A   Clear
11:35 PM 59.0 °F 57.2 °F 94% 29.97 in 10.0 mi SE 5.8 mph - N/A   Clear
11:55 PM 59.0 °F 57.2 °F 94% 29.97 in 10.0 mi SSE 3.5 mph - N/A   Partly Cloudy